Location: Moulis
(42.9609°N, 1.0909°E)
Time: 03:12:27
(UTC+00:00)

Cosmos 1933 - Pass Details

Date: 11 December 2025
Orbit: 510 x 518 km, 82.5° (Epoch: 12 January)

Event Time Altitude Azimuth Distance (km) Brightness Sun altitude
Rises 16:50:49 0° 164° (SSE) 2,627 6.9 -5.6°
Reaches altitude 10° 16:53:06 10° 154° (SSE) 1,743 5.9 -6.0°
Maximum altitude 16:56:30 31° 91° (E) 922 4.0 -6.5°
Drops below altitude 10° 16:59:55 10° 28° (NNE) 1,752 5.4 -7.1°
Enters shadow 17:02:07 - 19° (NNE) 2,608 6.4 -7.5°
